User: anonymous   Login
Location: Azul
(36.7830°S, 59.8500°W)
Time: 02:31:12
(UTC-03:00)
Language:

NUDT-PHONESAT - Orbit

View from above orbital plane
View from above orbital plane
View from above satellite
View from above satellite

Ground track
Ground track

The orbit data is extracted from the following two-line orbital elements,

1 40900U 15049B   21295.81949074  .00006726  00000-0  25069-3 0  9999
2 40900  97.4173 309.1747 0013043  54.2748 300.1822 15.27694152338257
Epoch (UTC): 22 October 2021 19:40:04
Eccentricity: 0.0013043
inclination: 97.4173°
perigee height: 474 km
apogee height: 491 km
right ascension of ascending node: 309.1747°
argument of perigee: 54.2748°
revolutions per day: 15.27694152
mean anomaly at epoch: 300.1822°
orbit number at epoch: 33825

The dashed part of the orbit path shows where the satellite is in the earth's shadow,  

DLR